Terug naar catalogus

ATLAS 5 CENTAUR DEB

LostHEO
NORAD 46858·DEBRIS·🇺🇸 United States

Gelanceerd Oct 17, 2018 vanaf Cape Canaveral Space Force Station

Loading…

Volgende Passages (komende 24 uur)

TLE

VerouderdSource: Space-Track

Epoch: Mar 1, 2024, 04:32 UTC

1 46858U 18079DP  24061.18944800 -.00000123  00000-0  00000+0 0  9999
2 46858  11.6771  94.2852 4572660 227.9420  82.9750  1.95418361 23736

Volg ATLAS 5 CENTAUR DEB in realtime met AllMySat

Download on the App Store